Weather History for Marshalltown, IA

Change the Weather History Date:

Saturday, March 2, 2013

  Actual Average Record
Temperature  
Mean Temperature 12 °F 29 °F  
Max Temperature 24 °F 38 °F 48 °F (2008)
Min Temperature -1 °F 20 °F -15 °F (2014)
Degree Days  
Heating Degree Days 53 36  
Month to date heating degree days 98 72  
Since 1 July heating degree days 5102 5475  
Cooling Degree Days 0 0  
Month to date cooling degree days 0 0  
Year to date cooling degree days 0 0  
Moisture  
Dew Point 9 °F    
Average Humidity 82    
Maximum Humidity 96    
Minimum Humidity 68    
Precipitation  
Precipitation 0.00 in 0.05 in 0.15 in (2008)
Month to date precipitation T 0.10  
Sea Level Pressure  
Sea Level Pressure 30.31 in    
Wind  
Wind Speed 5 mph (NW)    
Max Wind Speed 10 mph    
Max Gust Speed 12 mph    
Visibility 9 miles    
Events      
T = Trace of Precipitation, MM = Missing Value Source: NWS Daily Summary

Daily Weather History Graph

Daily Weather History Graph

Search for Another Location

Airport:

Trip Planner

Search our weather history database for the weather conditions in past years. The results will help you decide how hot, cold, wet, or windy it might be!

Date:

Astronomy

Mar. 02, 2013 Rise Set
Actual Time 6:44 AM CST 6:03 PM CST
Civil Twilight 6:16 AM CST 6:31 PM CST
Nautical Twilight 5:44 AM CST 7:03 PM CST
Astronomical Twilight 5:12 AM CST 7:36 PM CST
Moon 11:50 PM CST (3/2) 9:07 AM CST (3/2)
Length of Visible Light 12h 14m
Length of Day
11h 18m
Waning Gibbous, 74% of the Moon is Illuminated
Mar 2
Waning Gibbous
Mar 4
Last Quarter
Mar 11
New
Mar 19
First Quarter
Mar 27
Full

Hourly Weather History & Observations

Time (CST) Temp. Windchill Dew Point Humidity Pressure Visibility Wind Dir Wind Speed Gust Speed Precip Events Conditions
12:53 AM 10.9 °F -1.8 °F 9.0 °F 92% 30.34 in 10.0 mi NW 9.2 mph - N/A   Clear
1:53 AM 8.1 °F -4.3 °F 6.1 °F 92% 30.33 in 10.0 mi NW 8.1 mph - N/A   Clear
2:53 AM 7.0 °F -4.5 °F 5.0 °F 92% 30.32 in 10.0 mi NW 6.9 mph - N/A   Clear
3:53 AM 3.0 °F -10.5 °F 1.0 °F 91% 30.32 in 8.0 mi NW 8.1 mph - N/A   Clear
5:53 AM 1.0 °F -10.3 °F -2.0 °F 87% 30.34 in 8.0 mi WNW 5.8 mph - N/A   Clear
6:53 AM 1.9 °F - -0.9 °F 88% 30.34 in 5.0 mi Calm Calm - N/A   Clear
7:53 AM 1.0 °F -11.7 °F -0.9 °F 91% 30.35 in 7.0 mi WNW 6.9 mph - N/A   Clear
8:53 AM 5.0 °F -5.6 °F 1.9 °F 87% 30.36 in 10.0 mi NW 5.8 mph - N/A   Clear
9:53 AM 12.0 °F 4.1 °F 9.0 °F 88% 30.35 in 10.0 mi North 4.6 mph - N/A   Clear
10:53 AM 14.0 °F 6.5 °F 10.9 °F 88% 30.35 in 10.0 mi NW 4.6 mph - N/A   Clear
11:53 AM 17.1 °F 10.0 °F 12.0 °F 81% 30.33 in 10.0 mi NW 4.6 mph - N/A   Clear
12:53 PM 21.0 °F 14.6 °F 14.0 °F 74% 30.32 in 10.0 mi NW 4.6 mph - N/A   Clear
1:53 PM 23.0 °F 14.7 °F 15.1 °F 72% 30.30 in 10.0 mi WNW 6.9 mph - N/A   Clear
2:53 PM 24.1 °F 16.0 °F 16.0 °F 71% 30.29 in 10.0 mi West 6.9 mph - N/A   Clear
3:53 PM 24.1 °F 18.2 °F 17.1 °F 75% 30.28 in 10.0 mi WNW 4.6 mph - N/A   Clear
4:53 PM 23.0 °F 17.0 °F 16.0 °F 74% 30.27 in 10.0 mi WNW 4.6 mph - N/A   Clear
5:53 PM 21.0 °F - 15.1 °F 78% 30.27 in 10.0 mi Calm Calm - N/A   Clear
7:53 PM 15.1 °F 9.4 °F 12.0 °F 88% 30.26 in 10.0 mi ESE 3.5 mph - N/A   Clear
8:53 PM 12.0 °F - 10.0 °F 92% 30.27 in 8.0 mi Calm Calm - N/A   Clear
9:53 PM 10.9 °F - 9.0 °F 92% 30.26 in 8.0 mi Calm Calm - N/A   Overcast
10:53 PM 14.0 °F - 12.0 °F 92% 30.24 in 9.0 mi Calm Calm - N/A   Overcast
11:53 PM 15.1 °F 7.7 °F 12.9 °F 91% 30.23 in 9.0 mi SW 4.6 mph - N/A   Overcast